Time,TemperatureF,DewpointF,PressureIn,WindDirection,WindDirectionDegrees,WindSpeedMPH,WindSpeedGustMPH,Humidity,HourlyPrecipIn,Conditions,Clouds,dailyrainin,SoftwareType,DateUTC
2013-08-20 00:00:00,60.5,59.4,29.96,NNE,24,0.0,0.0,96,0.00,,,0.01,Wunderground v.1.15,2013-08-20 04:00:00,
2013-08-20 00:05:00,60.4,59.3,29.97,NNE,24,0.0,0.0,96,0.00,,,0.00,Wunderground v.1.15,2013-08-20 04:05:00,
2013-08-20 00:15:00,60.3,59.2,29.97,NNE,24,0.0,0.0,96,0.00,,,0.00,Wunderground v.1.15,2013-08-20 04:15:00,
2013-08-20 00:20:00,60.2,59.3,29.97,NNE,24,0.0,0.0,97,0.00,,,0.00,Wunderground v.1.15,2013-08-20 04:20:00,
2013-08-20 00:30:00,60.1,59.2,29.97,NNE,24,0.0,0.0,97,0.00,,,0.00,Wunderground v.1.15,2013-08-20 04:30:00,
2013-08-20 00:35:00,60.0,59.1,29.97,NNE,24,0.0,0.0,97,0.00,,,0.00,Wunderground v.1.15,2013-08-20 04:35:00,
2013-08-20 00:40:00,59.9,59.0,29.97,NNE,24,0.0,0.0,97,0.00,,,0.00,Wunderground v.1.15,2013-08-20 04:40:00,
2013-08-20 00:45:00,59.9,59.0,29.97,NNE,24,0.0,0.0,97,0.00,,,0.00,Wunderground v.1.15,2013-08-20 04:45:00,
2013-08-20 00:50:00,60.0,59.1,29.97,NNE,24,0.0,0.0,97,0.00,,,0.00,Wunderground v.1.15,2013-08-20 04:50:00,
2013-08-20 00:55:00,59.9,59.0,29.97,NNE,24,0.0,0.0,97,0.00,,,0.00,Wunderground v.1.15,2013-08-20 04:55:00,
2013-08-20 01:00:00,59.9,59.0,29.97,NNE,24,0.0,0.0,97,0.00,,,0.00,Wunderground v.1.15,2013-08-20 05:00:00,
2013-08-20 01:05:00,59.8,58.9,29.97,NNE,24,0.0,0.0,97,0.00,,,0.00,Wunderground v.1.15,2013-08-20 05:05:00,
2013-08-20 01:15:00,59.6,58.7,29.97,NNE,24,0.0,0.0,97,0.00,,,0.00,Wunderground v.1.15,2013-08-20 05:15:00,
2013-08-20 01:20:00,59.5,58.6,29.97,NNE,24,0.0,0.0,97,0.00,,,0.00,Wunderground v.1.15,2013-08-20 05:20:00,
2013-08-20 01:30:00,59.4,58.5,29.97,NNE,24,0.0,0.0,97,0.00,,,0.00,Wunderground v.1.15,2013-08-20 05:30:00,
2013-08-20 01:35:00,59.3,58.4,29.97,NNE,24,0.0,0.0,97,0.00,,,0.00,Wunderground v.1.15,2013-08-20 05:35:00,
2013-08-20 01:40:00,59.3,58.4,29.97,NNE,24,0.0,0.0,97,0.00,,,0.00,Wunderground v.1.15,2013-08-20 05:40:00,
2013-08-20 01:50:00,59.3,58.4,29.97,NNE,24,0.0,0.0,97,0.00,,,0.00,Wunderground v.1.15,2013-08-20 05:50:00,
2013-08-20 01:55:00,59.3,58.4,29.97,NNE,24,0.0,0.0,97,0.00,,,0.00,Wunderground v.1.15,2013-08-20 05:55:00,
2013-08-20 02:05:00,59.0,58.2,29.97,NNE,24,0.0,0.0,97,0.00,,,0.00,Wunderground v.1.15,2013-08-20 06:05:00,
2013-08-20 02:15:00,59.0,58.2,29.97,NNE,24,0.0,1.0,97,0.00,,,0.00,Wunderground v.1.15,2013-08-20 06:15:00,
2013-08-20 02:20:00,59.2,58.6,29.97,South,181,0.0,0.0,98,0.00,,,0.00,Wunderground v.1.15,2013-08-20 06:20:00,
2013-08-20 02:25:00,59.5,58.9,29.98,SSW,192,0.0,0.0,98,0.00,,,0.00,Wunderground v.1.15,2013-08-20 06:25:00,
2013-08-20 02:35:00,60.1,59.5,29.97,SSW,192,0.0,0.0,98,0.00,,,0.00,Wunderground v.1.15,2013-08-20 06:35:00,
2013-08-20 02:40:00,60.2,59.6,29.97,SSW,192,0.0,0.0,98,0.00,,,0.00,Wunderground v.1.15,2013-08-20 06:40:00,
2013-08-20 02:45:00,60.4,59.8,29.98,SSW,192,0.0,0.0,98,0.00,,,0.00,Wunderground v.1.15,2013-08-20 06:45:00,
2013-08-20 02:55:00,61.8,61.2,29.98,SSW,206,1.0,1.0,98,0.00,,,0.00,Wunderground v.1.15,2013-08-20 06:55:00,
2013-08-20 03:05:00,62.6,62.0,29.98,SSW,204,1.0,5.0,98,0.00,,,0.00,Wunderground v.1.15,2013-08-20 07:05:00,
2013-08-20 03:15:00,63.3,61.8,29.97,SSW,205,1.0,1.0,95,0.00,,,0.00,Wunderground v.1.15,2013-08-20 07:15:00,
2013-08-20 03:20:00,63.4,61.6,29.98,SSW,209,0.0,0.0,94,0.00,,,0.00,Wunderground v.1.15,2013-08-20 07:20:00,
2013-08-20 03:25:00,63.1,61.0,29.97,SSW,209,0.0,0.0,93,0.00,,,0.00,Wunderground v.1.15,2013-08-20 07:25:00,
2013-08-20 03:35:00,62.3,60.2,29.98,SSW,209,0.0,0.0,93,0.00,,,0.00,Wunderground v.1.15,2013-08-20 07:35:00,
2013-08-20 03:40:00,62.0,60.3,29.98,SSW,209,0.0,0.0,94,0.00,,,0.00,Wunderground v.1.15,2013-08-20 07:40:00,
2013-08-20 03:50:00,61.3,59.6,29.98,SSW,209,0.0,0.0,94,0.00,,,0.00,Wunderground v.1.15,2013-08-20 07:50:00,
2013-08-20 03:55:00,61.1,59.7,29.98,SSW,209,0.0,0.0,95,0.00,,,0.00,Wunderground v.1.15,2013-08-20 07:55:00,
2013-08-20 04:05:00,61.2,60.1,29.98,SSW,209,0.0,0.0,96,0.00,,,0.00,Wunderground v.1.15,2013-08-20 08:05:00,
2013-08-20 04:15:00,62.2,61.0,29.98,SSW,209,0.0,0.0,96,0.00,,,0.00,Wunderground v.1.15,2013-08-20 08:15:00,
2013-08-20 04:20:00,62.6,61.1,29.98,SSW,192,0.0,0.0,95,0.00,,,0.00,Wunderground v.1.15,2013-08-20 08:20:00,
2013-08-20 04:25:00,62.7,61.2,29.98,SSW,192,0.0,0.0,95,0.00,,,0.00,Wunderground v.1.15,2013-08-20 08:25:00,
2013-08-20 04:35:00,63.2,61.4,29.98,WNW,290,0.0,0.0,94,0.00,,,0.00,Wunderground v.1.15,2013-08-20 08:35:00,
2013-08-20 04:40:00,63.4,61.3,29.98,WNW,290,0.0,0.0,93,0.00,,,0.00,Wunderground v.1.15,2013-08-20 08:40:00,
2013-08-20 04:45:00,63.5,61.4,29.98,WNW,290,0.0,0.0,93,0.00,,,0.00,Wunderground v.1.15,2013-08-20 08:45:00,
2013-08-20 04:55:00,63.8,61.4,29.98,NNW,345,0.0,1.0,92,0.00,,,0.00,Wunderground v.1.15,2013-08-20 08:55:00,
2013-08-20 05:00:00,63.8,61.1,29.99,NNE,21,0.0,0.0,91,0.00,,,0.00,Wunderground v.1.15,2013-08-20 09:00:00,
2013-08-20 05:05:00,63.8,61.1,30.00,NNW,346,0.0,0.0,91,0.00,,,0.00,Wunderground v.1.15,2013-08-20 09:05:00,
2013-08-20 05:15:00,63.8,61.1,30.00,West,277,0.0,0.0,91,0.00,,,0.00,Wunderground v.1.15,2013-08-20 09:15:00,
2013-08-20 05:20:00,63.8,61.1,30.00,West,278,0.0,0.0,91,0.00,,,0.00,Wunderground v.1.15,2013-08-20 09:20:00,
2013-08-20 05:25:00,63.6,60.9,30.00,West,278,0.0,0.0,91,0.00,,,0.00,Wunderground v.1.15,2013-08-20 09:25:00,
2013-08-20 05:30:00,63.4,60.7,30.00,West,278,0.0,0.0,91,0.00,,,0.00,Wunderground v.1.15,2013-08-20 09:30:00,
2013-08-20 05:40:00,63.1,60.7,30.00,West,277,0.0,0.0,92,0.00,,,0.00,Wunderground v.1.15,2013-08-20 09:40:00,
2013-08-20 05:45:00,62.8,60.4,30.01,West,277,0.0,0.0,92,0.00,,,0.00,Wunderground v.1.15,2013-08-20 09:45:00,
2013-08-20 05:55:00,62.1,60.1,30.01,South,175,0.0,0.0,93,0.00,,,0.00,Wunderground v.1.15,2013-08-20 09:55:00,
2013-08-20 06:00:00,61.7,59.7,30.01,South,175,0.0,0.0,93,0.00,,,0.00,Wunderground v.1.15,2013-08-20 10:00:00,
2013-08-20 06:05:00,61.4,59.7,30.01,South,175,0.0,2.0,94,0.00,,,0.00,Wunderground v.1.15,2013-08-20 10:05:00,
2013-08-20 06:15:00,61.4,60.0,30.01,South,175,0.0,1.0,95,0.00,,,0.00,Wunderground v.1.15,2013-08-20 10:15:00,
2013-08-20 06:20:00,61.3,59.6,30.01,South,175,0.0,0.0,94,0.00,,,0.00,Wunderground v.1.15,2013-08-20 10:20:00,
2013-08-20 06:30:00,61.1,59.7,30.02,South,175,0.0,0.0,95,0.00,,,0.00,Wunderground v.1.15,2013-08-20 10:30:00,
2013-08-20 06:40:00,61.1,59.7,30.01,South,175,0.0,0.0,95,0.00,,,0.00,Wunderground v.1.15,2013-08-20 10:40:00,
2013-08-20 06:45:00,61.2,60.1,30.02,South,175,0.0,0.0,96,0.00,,,0.00,Wunderground v.1.15,2013-08-20 10:45:00,
2013-08-20 06:50:00,61.4,60.2,30.02,South,175,0.0,0.0,96,0.00,,,0.00,Wunderground v.1.15,2013-08-20 10:50:00,
2013-08-20 07:00:00,61.8,60.6,30.02,South,175,0.0,0.0,96,0.00,,,0.00,Wunderground v.1.15,2013-08-20 11:00:00,
2013-08-20 07:05:00,62.0,60.8,30.02,South,175,0.0,0.0,96,0.00,,,0.00,Wunderground v.1.15,2013-08-20 11:05:00,
2013-08-20 07:15:00,62.5,61.3,30.02,South,175,0.0,0.0,96,0.00,,,0.00,Wunderground v.1.15,2013-08-20 11:15:00,
2013-08-20 07:20:00,62.8,61.3,30.02,South,175,0.0,1.0,95,0.00,,,0.00,Wunderground v.1.15,2013-08-20 11:20:00,
2013-08-20 07:30:00,63.3,61.8,30.02,SE,138,1.0,1.0,95,0.00,,,0.00,Wunderground v.1.15,2013-08-20 11:30:00,
2013-08-20 07:35:00,63.6,61.8,30.03,SE,145,1.0,1.0,94,0.00,,,0.00,Wunderground v.1.15,2013-08-20 11:35:00,
2013-08-20 07:45:00,64.3,62.2,30.03,SSE,166,0.0,1.0,93,0.00,,,0.00,Wunderground v.1.15,2013-08-20 11:45:00,
2013-08-20 07:50:00,64.5,62.1,30.03,SSE,161,1.0,1.0,92,0.00,,,0.00,Wunderground v.1.15,2013-08-20 11:50:00,
2013-08-20 08:00:00,65.4,62.7,30.04,South,175,1.0,1.0,91,0.00,,,0.00,Wunderground v.1.15,2013-08-20 12:00:00,
2013-08-20 08:05:00,65.9,63.2,30.04,SSE,155,1.0,2.0,91,0.00,,,0.00,Wunderground v.1.15,2013-08-20 12:05:00,
2013-08-20 08:15:00,66.6,62.9,30.04,SSE,167,2.0,3.0,88,0.00,,,0.00,Wunderground v.1.15,2013-08-20 12:15:00,
2013-08-20 08:20:00,67.0,63.6,30.04,SSE,150,2.0,2.0,89,0.00,,,0.00,Wunderground v.1.15,2013-08-20 12:20:00,
2013-08-20 08:30:00,67.8,63.5,30.04,South,182,0.0,1.0,86,0.00,,,0.00,Wunderground v.1.15,2013-08-20 12:30:00,
2013-08-20 08:35:00,68.2,63.5,30.05,South,186,1.0,2.0,85,0.00,,,0.00,Wunderground v.1.15,2013-08-20 12:35:00,
2013-08-20 08:45:00,68.8,64.1,30.05,South,190,1.0,1.0,85,0.00,,,0.00,Wunderground v.1.15,2013-08-20 12:45:00,
2013-08-20 08:50:00,69.3,64.6,30.05,SSW,192,1.0,1.0,85,0.00,,,0.00,Wunderground v.1.15,2013-08-20 12:50:00,
2013-08-20 09:00:00,70.1,64.7,30.04,South,178,0.0,1.0,83,0.00,,,0.00,Wunderground v.1.15,2013-08-20 13:00:00,
2013-08-20 09:05:00,70.5,65.1,30.05,South,175,0.0,1.0,83,0.00,,,0.00,Wunderground v.1.15,2013-08-20 13:05:00,
2013-08-20 09:15:00,71.4,64.9,30.05,South,184,0.0,0.0,80,0.00,,,0.00,Wunderground v.1.15,2013-08-20 13:15:00,
2013-08-20 09:20:00,71.8,64.6,30.05,SSW,198,0.0,2.0,78,0.00,,,0.00,Wunderground v.1.15,2013-08-20 13:20:00,
2013-08-20 09:30:00,71.8,64.9,30.05,South,188,1.0,1.0,79,0.00,,,0.00,Wunderground v.1.15,2013-08-20 13:30:00,
2013-08-20 09:35:00,71.9,65.0,30.05,SW,215,1.0,1.0,79,0.00,,,0.00,Wunderground v.1.15,2013-08-20 13:35:00,
2013-08-20 09:45:00,72.6,65.0,30.04,South,173,1.0,1.0,77,0.00,,,0.00,Wunderground v.1.15,2013-08-20 13:45:00,
2013-08-20 09:55:00,73.5,65.5,30.04,SSW,197,1.0,1.0,76,0.00,,,0.00,Wunderground v.1.15,2013-08-20 13:55:00,
2013-08-20 10:00:00,74.0,66.0,30.05,SW,217,1.0,1.0,76,0.00,,,0.00,Wunderground v.1.15,2013-08-20 14:00:00,
2013-08-20 10:05:00,74.3,65.9,30.05,SSW,198,1.0,1.0,75,0.00,,,0.00,Wunderground v.1.15,2013-08-20 14:05:00,
2013-08-20 10:15:00,75.0,64.1,30.05,NW,312,1.0,3.0,69,0.00,,,0.00,Wunderground v.1.15,2013-08-20 14:15:00,
2013-08-20 10:25:00,75.9,64.2,30.05,West,277,1.0,4.0,67,0.00,,,0.00,Wunderground v.1.15,2013-08-20 14:25:00,
2013-08-20 10:30:00,76.2,64.4,30.05,NW,319,1.0,1.0,67,0.00,,,0.00,Wunderground v.1.15,2013-08-20 14:30:00,
2013-08-20 10:35:00,76.6,64.0,30.04,NNE,18,1.0,1.0,65,0.00,,,0.00,Wunderground v.1.15,2013-08-20 14:35:00,
2013-08-20 10:45:00,77.2,64.5,30.05,West,279,1.0,1.0,65,0.00,,,0.00,Wunderground v.1.15,2013-08-20 14:45:00,
2013-08-20 10:50:00,77.5,64.8,30.05,NW,319,1.0,1.0,65,0.00,,,0.00,Wunderground v.1.15,2013-08-20 14:50:00,
2013-08-20 11:00:00,77.5,63.5,30.05,West,273,1.0,2.0,62,0.00,,,0.00,Wunderground v.1.15,2013-08-20 15:00:00,
2013-08-20 11:05:00,77.6,64.5,30.05,NW,317,2.0,2.0,64,0.00,,,0.00,Wunderground v.1.15,2013-08-20 15:05:00,
2013-08-20 11:15:00,78.0,63.9,30.05,WNW,291,1.0,2.0,62,0.00,,,0.00,Wunderground v.1.15,2013-08-20 15:15:00,
2013-08-20 11:20:00,78.3,64.7,30.04,West,269,1.0,1.0,63,0.00,,,0.00,Wunderground v.1.15,2013-08-20 15:20:00,
2013-08-20 11:30:00,79.1,64.0,30.04,NW,325,1.0,1.0,60,0.00,,,0.00,Wunderground v.1.15,2013-08-20 15:30:00,
2013-08-20 11:40:00,79.5,63.4,30.04,West,269,0.0,0.0,58,0.00,,,0.00,Wunderground v.1.15,2013-08-20 15:40:00,
2013-08-20 11:45:00,79.6,64.0,30.04,NW,317,1.0,3.0,59,0.00,,,0.00,Wunderground v.1.15,2013-08-20 15:45:00,
2013-08-20 11:50:00,79.7,65.1,30.04,West,276,1.0,2.0,61,0.00,,,0.00,Wunderground v.1.15,2013-08-20 15:50:00,
2013-08-20 12:00:00,80.1,63.5,30.03,NW,315,0.0,0.0,57,0.00,,,0.00,Wunderground v.1.15,2013-08-20 16:00:00,
2013-08-20 12:05:00,80.1,63.5,30.03,NNE,26,1.0,1.0,57,0.00,,,0.00,Wunderground v.1.15,2013-08-20 16:05:00,
2013-08-20 12:15:00,80.7,64.5,30.03,NNW,344,0.0,1.0,58,0.00,,,0.00,Wunderground v.1.15,2013-08-20 16:15:00,
2013-08-20 12:25:00,80.5,63.9,30.04,WNW,282,1.0,1.0,57,0.00,,,0.00,Wunderground v.1.15,2013-08-20 16:25:00,
2013-08-20 12:30:00,80.6,63.5,30.03,North,355,1.0,2.0,56,0.00,,,0.00,Wunderground v.1.15,2013-08-20 16:30:00,
2013-08-20 12:40:00,80.8,64.1,30.03,NNW,338,1.0,1.0,57,0.00,,,0.00,Wunderground v.1.15,2013-08-20 16:40:00,
2013-08-20 12:45:00,80.9,63.2,30.03,West,266,1.0,1.0,55,0.00,,,0.00,Wunderground v.1.15,2013-08-20 16:45:00,
2013-08-20 12:55:00,81.3,63.1,30.03,North,360,1.0,1.0,54,0.00,,,0.00,Wunderground v.1.15,2013-08-20 16:55:00,
2013-08-20 13:00:00,81.0,61.7,30.03,South,182,2.0,2.0,52,0.00,,,0.00,Wunderground v.1.15,2013-08-20 17:00:00,
2013-08-20 13:05:00,80.9,63.2,30.03,NNE,26,2.0,2.0,55,0.00,,,0.00,Wunderground v.1.15,2013-08-20 17:05:00,
2013-08-20 13:15:00,80.9,64.7,30.03,WNW,284,2.0,2.0,58,0.00,,,0.00,Wunderground v.1.15,2013-08-20 17:15:00,
2013-08-20 13:25:00,80.9,62.2,30.03,NNE,29,1.0,2.0,53,0.00,,,0.00,Wunderground v.1.15,2013-08-20 17:25:00,
2013-08-20 13:30:00,80.9,61.1,30.03,NW,318,1.0,1.0,51,0.00,,,0.00,Wunderground v.1.15,2013-08-20 17:30:00,
2013-08-20 13:40:00,81.4,63.7,30.03,NNW,342,1.0,2.0,55,0.00,,,0.00,Wunderground v.1.15,2013-08-20 17:40:00,
2013-08-20 13:50:00,81.7,63.4,30.03,SSE,153,1.0,2.0,54,0.00,,,0.00,Wunderground v.1.15,2013-08-20 17:50:00,
2013-08-20 13:55:00,81.8,62.5,30.03,NE,44,1.0,2.0,52,0.00,,,0.00,Wunderground v.1.15,2013-08-20 17:55:00,
2013-08-20 14:00:00,82.1,61.0,30.02,NNE,28,1.0,1.0,49,0.00,,,0.00,Wunderground v.1.15,2013-08-20 18:00:00,
2013-08-20 14:05:00,81.6,62.3,30.02,WNW,302,1.0,1.0,52,0.00,,,0.00,Wunderground v.1.15,2013-08-20 18:05:00,
2013-08-20 14:15:00,81.4,62.6,30.02,WNW,294,1.0,2.0,53,0.00,,,0.00,Wunderground v.1.15,2013-08-20 18:15:00,
2013-08-20 14:25:00,82.0,62.6,30.02,West,266,0.0,1.0,52,0.00,,,0.00,Wunderground v.1.15,2013-08-20 18:25:00,
2013-08-20 14:30:00,82.4,63.5,30.02,NW,306,0.0,0.0,53,0.00,,,0.00,Wunderground v.1.15,2013-08-20 18:30:00,
2013-08-20 14:40:00,82.7,62.2,30.02,WNW,284,1.0,2.0,50,0.00,,,0.00,Wunderground v.1.15,2013-08-20 18:40:00,
2013-08-20 14:45:00,82.5,62.5,30.02,North,351,1.0,2.0,51,0.00,,,0.00,Wunderground v.1.15,2013-08-20 18:45:00,
2013-08-20 14:55:00,82.1,62.2,30.02,West,270,2.0,2.0,51,0.00,,,0.00,Wunderground v.1.15,2013-08-20 18:55:00,
2013-08-20 15:00:00,82.2,60.6,30.02,NE,42,1.0,1.0,48,0.00,,,0.00,Wunderground v.1.15,2013-08-20 19:00:00,
2013-08-20 15:10:00,82.6,62.6,30.02,WNW,290,0.0,0.0,51,0.00,,,0.00,Wunderground v.1.15,2013-08-20 19:10:00,
2013-08-20 15:15:00,82.7,62.2,30.02,NNW,336,1.0,1.0,50,0.00,,,0.00,Wunderground v.1.15,2013-08-20 19:15:00,
2013-08-20 15:25:00,82.8,62.8,30.02,NNE,12,1.0,2.0,51,0.00,,,0.00,Wunderground v.1.15,2013-08-20 19:25:00,
2013-08-20 15:30:00,82.9,65.1,30.02,NW,326,1.0,1.0,55,0.00,,,0.00,Wunderground v.1.15,2013-08-20 19:30:00,
2013-08-20 15:40:00,82.8,60.5,30.02,SE,127,1.0,1.0,47,0.00,,,0.00,Wunderground v.1.15,2013-08-20 19:40:00,
2013-08-20 15:45:00,82.8,61.7,30.02,West,261,1.0,3.0,49,0.00,,,0.00,Wunderground v.1.15,2013-08-20 19:45:00,
2013-08-20 15:50:00,82.8,61.7,30.02,North,360,1.0,1.0,49,0.00,,,0.00,Wunderground v.1.15,2013-08-20 19:50:00,
2013-08-20 16:00:00,83.0,64.1,30.01,SSW,213,0.0,0.0,53,0.00,,,0.00,Wunderground v.1.15,2013-08-20 20:00:00,
2013-08-20 16:05:00,83.1,62.0,30.01,NNE,24,1.0,2.0,49,0.00,,,0.00,Wunderground v.1.15,2013-08-20 20:05:00,
2013-08-20 16:15:00,83.0,61.3,30.01,WNW,286,1.0,1.0,48,0.00,,,0.00,Wunderground v.1.15,2013-08-20 20:15:00,
2013-08-20 16:25:00,83.8,62.0,30.01,NNW,346,0.0,0.0,48,0.00,,,0.00,Wunderground v.1.15,2013-08-20 20:25:00,
2013-08-20 16:30:00,83.4,61.7,30.01,NE,40,1.0,1.0,48,0.00,,,0.00,Wunderground v.1.15,2013-08-20 20:30:00,
2013-08-20 16:35:00,82.8,61.1,30.01,North,11,1.0,1.0,48,0.00,,,0.00,Wunderground v.1.15,2013-08-20 20:35:00,
2013-08-20 16:45:00,82.2,61.7,30.01,NW,321,1.0,2.0,50,0.00,,,0.00,Wunderground v.1.15,2013-08-20 20:45:00,
2013-08-20 16:50:00,81.9,61.4,30.02,NNW,335,1.0,1.0,50,0.00,,,0.00,Wunderground v.1.15,2013-08-20 20:50:00,
2013-08-20 17:00:00,81.6,61.7,30.02,NW,315,0.0,0.0,51,0.00,,,0.00,Wunderground v.1.15,2013-08-20 21:00:00,
2013-08-20 17:05:00,82.0,62.1,30.02,NW,315,0.0,0.0,51,0.00,,,0.00,Wunderground v.1.15,2013-08-20 21:05:00,
2013-08-20 17:15:00,82.5,61.4,30.01,West,270,0.0,1.0,49,0.00,,,0.00,Wunderground v.1.15,2013-08-20 21:15:00,
2013-08-20 17:25:00,82.8,61.7,30.02,NW,320,0.0,0.0,49,0.00,,,0.00,Wunderground v.1.15,2013-08-20 21:25:00,
2013-08-20 17:30:00,82.5,60.8,30.02,NW,317,1.0,2.0,48,0.00,,,0.00,Wunderground v.1.15,2013-08-20 21:30:00,
2013-08-20 17:40:00,82.1,59.9,30.02,ENE,67,1.0,1.0,47,0.00,,,0.00,Wunderground v.1.15,2013-08-20 21:40:00,
2013-08-20 17:45:00,82.0,61.0,30.02,NNW,336,0.0,1.0,49,0.00,,,0.00,Wunderground v.1.15,2013-08-20 21:45:00,
2013-08-20 17:55:00,81.9,62.0,30.02,NNW,331,0.0,0.0,51,0.00,,,0.00,Wunderground v.1.15,2013-08-20 21:55:00,
2013-08-20 18:00:00,82.1,62.7,30.02,NNW,331,0.0,0.0,52,0.00,,,0.00,Wunderground v.1.15,2013-08-20 22:00:00,
2013-08-20 18:05:00,82.1,63.8,30.02,NNW,331,0.0,0.0,54,0.00,,,0.00,Wunderground v.1.15,2013-08-20 22:05:00,
2013-08-20 18:15:00,82.2,64.4,30.02,NNW,331,0.0,0.0,55,0.00,,,0.00,Wunderground v.1.15,2013-08-20 22:15:00,
2013-08-20 18:25:00,81.3,65.6,30.03,NNW,331,0.0,0.0,59,0.00,,,0.00,Wunderground v.1.15,2013-08-20 22:25:00,
2013-08-20 18:30:00,80.8,65.6,30.03,NNW,331,0.0,0.0,60,0.00,,,0.00,Wunderground v.1.15,2013-08-20 22:30:00,
2013-08-20 18:40:00,79.2,65.1,30.03,NNW,331,0.0,0.0,62,0.00,,,0.00,Wunderground v.1.15,2013-08-20 22:40:00,
2013-08-20 18:45:00,78.3,66.0,30.03,NNW,331,0.0,0.0,66,0.00,,,0.00,Wunderground v.1.15,2013-08-20 22:45:00,
2013-08-20 18:55:00,76.6,66.5,30.03,NNW,331,0.0,0.0,71,0.00,,,0.00,Wunderground v.1.15,2013-08-20 22:55:00,
2013-08-20 19:00:00,75.8,66.1,30.03,NNW,331,0.0,0.0,72,0.00,,,0.00,Wunderground v.1.15,2013-08-20 23:00:00,
2013-08-20 19:05:00,75.1,66.6,30.03,NNW,331,0.0,0.0,75,0.00,,,0.00,Wunderground v.1.15,2013-08-20 23:05:00,
2013-08-20 19:20:00,73.0,65.4,30.03,NNW,331,0.0,0.0,77,0.00,,,0.00,Wunderground v.1.15,2013-08-20 23:20:00,
2013-08-20 19:25:00,72.4,65.5,30.04,NNW,331,0.0,0.0,79,0.00,,,0.00,Wunderground v.1.15,2013-08-20 23:25:00,
2013-08-20 19:35:00,71.3,65.5,30.04,NNW,331,0.0,0.0,82,0.00,,,0.00,Wunderground v.1.15,2013-08-20 23:35:00,
2013-08-20 19:40:00,70.8,65.7,30.03,NNW,331,0.0,0.0,84,0.00,,,0.00,Wunderground v.1.15,2013-08-20 23:40:00,
2013-08-20 19:50:00,69.9,65.2,30.04,NNW,331,0.0,0.0,85,0.00,,,0.00,Wunderground v.1.15,2013-08-20 23:50:00,
2013-08-20 19:55:00,69.4,65.0,30.04,NNW,331,0.0,0.0,86,0.00,,,0.00,Wunderground v.1.15,2013-08-20 23:55:00,
2013-08-20 20:05:00,68.4,64.4,30.04,NNW,331,0.0,0.0,87,0.00,,,0.00,Wunderground v.1.15,2013-08-21 00:05:00,
2013-08-20 20:15:00,67.8,63.8,30.04,NNW,331,0.0,0.0,87,0.00,,,0.00,Wunderground v.1.15,2013-08-21 00:15:00,
2013-08-20 20:20:00,67.5,63.8,30.04,NNW,331,0.0,0.0,88,0.00,,,0.00,Wunderground v.1.15,2013-08-21 00:20:00,
2013-08-20 20:25:00,67.2,63.5,30.04,NNW,331,0.0,0.0,88,0.00,,,0.00,Wunderground v.1.15,2013-08-21 00:25:00,
2013-08-20 20:35:00,66.6,63.3,30.05,NNW,331,0.0,0.0,89,0.00,,,0.00,Wunderground v.1.15,2013-08-21 00:35:00,
2013-08-20 20:40:00,66.2,62.9,30.05,NNW,331,0.0,0.0,89,0.00,,,0.00,Wunderground v.1.15,2013-08-21 00:40:00,
2013-08-20 20:50:00,65.8,63.1,30.06,NNW,331,0.0,0.0,91,0.00,,,0.00,Wunderground v.1.15,2013-08-21 00:50:00,
2013-08-20 20:55:00,65.5,62.8,30.06,NNW,331,0.0,0.0,91,0.00,,,0.00,Wunderground v.1.15,2013-08-21 00:55:00,
2013-08-20 21:00:00,65.2,62.5,30.06,NNW,331,0.0,0.0,91,0.00,,,0.00,Wunderground v.1.15,2013-08-21 01:00:00,
2013-08-20 21:05:00,64.9,62.2,30.06,NNW,331,0.0,0.0,91,0.00,,,0.00,Wunderground v.1.15,2013-08-21 01:05:00,
2013-08-20 21:15:00,64.5,62.1,30.06,NNW,331,0.0,0.0,92,0.00,,,0.00,Wunderground v.1.15,2013-08-21 01:15:00,
2013-08-20 21:20:00,64.3,61.9,30.06,NNW,331,0.0,0.0,92,0.00,,,0.00,Wunderground v.1.15,2013-08-21 01:20:00,
2013-08-20 21:25:00,64.1,62.0,30.06,NNW,331,0.0,0.0,93,0.00,,,0.00,Wunderground v.1.15,2013-08-21 01:25:00,
2013-08-20 21:35:00,63.9,62.1,30.06,NNW,331,0.0,0.0,94,0.00,,,0.00,Wunderground v.1.15,2013-08-21 01:35:00,
2013-08-20 21:40:00,63.9,62.1,30.06,NNW,331,0.0,0.0,94,0.00,,,0.00,Wunderground v.1.15,2013-08-21 01:40:00,
2013-08-20 21:45:00,63.8,62.0,30.06,NNW,331,0.0,0.0,94,0.00,,,0.00,Wunderground v.1.15,2013-08-21 01:45:00,
2013-08-20 21:55:00,63.5,61.7,30.06,NNW,331,0.0,0.0,94,0.00,,,0.00,Wunderground v.1.15,2013-08-21 01:55:00,
2013-08-20 22:05:00,63.3,61.5,30.06,NNW,331,0.0,0.0,94,0.00,,,0.00,Wunderground v.1.15,2013-08-21 02:05:00,
2013-08-20 22:15:00,62.9,61.1,30.06,NNW,331,0.0,0.0,94,0.00,,,0.00,Wunderground v.1.15,2013-08-21 02:15:00,
2013-08-20 22:20:00,62.7,61.2,30.06,NNW,331,0.0,0.0,95,0.00,,,0.00,Wunderground v.1.15,2013-08-21 02:20:00,
2013-08-20 22:25:00,62.7,61.2,30.06,NNW,331,0.0,0.0,95,0.00,,,0.00,Wunderground v.1.15,2013-08-21 02:25:00,
2013-08-20 22:30:00,62.7,61.2,30.06,NNW,331,0.0,0.0,95,0.00,,,0.00,Wunderground v.1.15,2013-08-21 02:30:00,
2013-08-20 22:40:00,63.1,61.9,30.06,NNW,331,0.0,0.0,96,0.00,,,0.00,Wunderground v.1.15,2013-08-21 02:40:00,
2013-08-20 22:45:00,63.1,61.6,30.06,NNW,331,0.0,0.0,95,0.00,,,0.00,Wunderground v.1.15,2013-08-21 02:45:00,
2013-08-20 22:55:00,63.0,61.5,30.07,NNW,331,0.0,0.0,95,0.00,,,0.00,Wunderground v.1.15,2013-08-21 02:55:00,
2013-08-20 23:00:00,62.9,61.4,30.07,NNW,331,0.0,0.0,95,0.00,,,0.00,Wunderground v.1.15,2013-08-21 03:00:00,
2013-08-20 23:05:00,62.8,61.3,30.07,NNW,331,0.0,0.0,95,0.00,,,0.00,Wunderground v.1.15,2013-08-21 03:05:00,
2013-08-20 23:15:00,62.6,61.1,30.07,NNW,331,0.0,0.0,95,0.00,,,0.00,Wunderground v.1.15,2013-08-21 03:15:00,
2013-08-20 23:25:00,62.2,60.8,30.07,NNW,331,0.0,0.0,95,0.00,,,0.00,Wunderground v.1.15,2013-08-21 03:25:00,
2013-08-20 23:30:00,62.1,60.7,30.07,NNW,331,0.0,0.0,95,0.00,,,0.00,Wunderground v.1.15,2013-08-21 03:30:00,
2013-08-20 23:35:00,62.1,60.9,30.07,NNW,331,0.0,0.0,96,0.00,,,0.00,Wunderground v.1.15,2013-08-21 03:35:00,
2013-08-20 23:45:00,61.9,60.7,30.07,NNW,331,0.0,0.0,96,0.00,,,0.00,Wunderground v.1.15,2013-08-21 03:45:00,
2013-08-20 23:55:00,61.9,60.7,30.07,NNW,331,0.0,0.0,96,0.00,,,0.00,Wunderground v.1.15,2013-08-21 03:55:00,